EN

Hourly Weather Kyzylbulak

Today, 4 August, Wednesday

Time Temperature Precipitation Wind Pressure Humidity
00:00 +30°C° 0 mm 1 mps 748 mmHg 25%
01:00 +29°C° 0 mm 1 mps 749 mmHg 27%
02:00 +29°C° 0 mm 1 mps 749 mmHg 27%
03:00 +28°C° 0 mm 2 mps 749 mmHg 27%
04:00 +28°C° 0 mm 2 mps 749 mmHg 27%
05:00 +29°C° 0 mm 1 mps 749 mmHg 25%
06:00 +31°C° 0 mm 1 mps 749 mmHg 24%
07:00 +30°C° 0 mm 0 mps 749 mmHg 22%
08:00 +34°C° 0 mm 1 mps 749 mmHg 20%
09:00 +38°C° 0 mm 2 mps 749 mmHg 17%
10:00 +40°C° 0 mm 3 mps 749 mmHg 14%
11:00 +42°C° 0 mm 3 mps 749 mmHg 13%
12:00 +43°C° 0 mm 3 mps 748 mmHg 12%
13:00 +43°C° 0 mm 3 mps 748 mmHg 10%
14:00 +43°C° 0 mm 3 mps 748 mmHg 11%
15:00 +43°C° 0 mm 4 mps 748 mmHg 11%
16:00 +42°C° 0 mm 4 mps 747 mmHg 12%
17:00 +40°C° 0 mm 3 mps 747 mmHg 13%
18:00 +39°C° 0 mm 3 mps 747 mmHg 14%
19:00 +38°C° 0 mm 3 mps 747 mmHg 15%
20:00 +37°C° 0 mm 3 mps 747 mmHg 16%
21:00 +36°C° 0 mm 4 mps 747 mmHg 18%
22:00 +34°C° 0 mm 4 mps 747 mmHg 19%
23:00 +33°C° 0 mm 4 mps 747 mmHg 21%

Tomorrow, 5 August, Thursday

Time Temperature Precipitation Wind Pressure Humidity
00:00 +31°C° 0 mm 3 mps 747 mmHg 24%
01:00 +30°C° 0 mm 3 mps 747 mmHg 26%
02:00 +29°C° 0 mm 2 mps 747 mmHg 26%
03:00 +29°C° 0 mm 2 mps 746 mmHg 27%
04:00 +29°C° 0 mm 2 mps 746 mmHg 27%
05:00 +30°C° 0 mm 2 mps 746 mmHg 26%
06:00 +31°C° 0 mm 2 mps 747 mmHg 25%
07:00 +32°C° 0 mm 2 mps 747 mmHg 23%
08:00 +35°C° 0 mm 2 mps 747 mmHg 21%
09:00 +37°C° 0 mm 2 mps 746 mmHg 19%
10:00 +38°C° 0 mm 2 mps 746 mmHg 16%
11:00 +39°C° 0 mm 3 mps 746 mmHg 15%
12:00 +42°C° 0 mm 4 mps 745 mmHg 13%
13:00 +43°C° 0 mm 5 mps 745 mmHg 12%
14:00 +43°C° 0 mm 5 mps 745 mmHg 12%
15:00 +44°C° 0 mm 6 mps 745 mmHg 12%
16:00 +44°C° 0 mm 6 mps 744 mmHg 11%
17:00 +41°C° 0 mm 6 mps 745 mmHg 15%
18:00 +39°C° 0 mm 6 mps 745 mmHg 19%
19:00 +38°C° 0 mm 6 mps 745 mmHg 23%
20:00 +35°C° 0 mm 6 mps 745 mmHg 28%
21:00 +33°C° 0 mm 5 mps 745 mmHg 34%
22:00 +30°C° 0 mm 5 mps 745 mmHg 40%
23:00 +28°C° 0 mm 5 mps 745 mmHg 44%

Day after tomorrow, 6 August, Friday

Time Temperature Precipitation Wind Pressure Humidity
00:00 +27°C° 0 mm 5 mps 746 mmHg 48%
01:00 +26°C° 0 mm 5 mps 746 mmHg 52%
02:00 +25°C° 0 mm 5 mps 746 mmHg 56%
03:00 +23°C° 0 mm 5 mps 746 mmHg 61%
04:00 +22°C° 0 mm 5 mps 746 mmHg 66%
05:00 +22°C° 0 mm 5 mps 747 mmHg 65%
06:00 +22°C° 0 mm 6 mps 747 mmHg 65%
07:00 +23°C° 0 mm 7 mps 747 mmHg 65%
08:00 +26°C° 0 mm 7 mps 747 mmHg 57%
09:00 +28°C° 0 mm 7 mps 747 mmHg 49%
10:00 +29°C° 0 mm 8 mps 748 mmHg 41%
11:00 +31°C° 0 mm 8 mps 748 mmHg 35%
12:00 +33°C° 0 mm 7 mps 748 mmHg 30%
13:00 +34°C° 0 mm 7 mps 748 mmHg 24%
14:00 +34°C° 0 mm 7 mps 748 mmHg 23%
15:00 +34°C° 0 mm 7 mps 748 mmHg 22%
16:00 +34°C° 0 mm 7 mps 747 mmHg 21%
17:00 +33°C° 0 mm 6 mps 748 mmHg 22%
18:00 +32°C° 0 mm 6 mps 748 mmHg 23%
19:00 +30°C° 0 mm 5 mps 748 mmHg 24%
20:00 +29°C° 0 mm 5 mps 748 mmHg 27%
21:00 +27°C° 0 mm 4 mps 749 mmHg 30%
22:00 +25°C° 0 mm 3 mps 749 mmHg 33%
23:00 +24°C° 0 mm 3 mps 749 mmHg 37%

7 August, Saturday

Time Temperature Precipitation Wind Pressure Humidity
00:00 +22°C° 0 mm 3 mps 749 mmHg 40%
01:00 +21°C° 0 mm 3 mps 749 mmHg 43%
02:00 +20°C° 0 mm 3 mps 750 mmHg 46%
03:00 +20°C° 0 mm 3 mps 750 mmHg 49%
04:00 +19°C° 0 mm 3 mps 750 mmHg 53%
05:00 +20°C° 0 mm 3 mps 750 mmHg 50%
06:00 +21°C° 0 mm 3 mps 751 mmHg 48%
07:00 +22°C° 0 mm 3 mps 751 mmHg 46%
08:00 +25°C° 0 mm 4 mps 751 mmHg 41%
09:00 +26°C° 0 mm 4 mps 751 mmHg 36%
10:00 +28°C° 0 mm 5 mps 751 mmHg 31%
11:00 +29°C° 0 mm 5 mps 751 mmHg 27%
12:00 +30°C° 0 mm 5 mps 751 mmHg 24%
13:00 +32°C° 0 mm 5 mps 751 mmHg 21%
14:00 +32°C° 0 mm 5 mps 751 mmHg 21%
15:00 +33°C° 0 mm 6 mps 751 mmHg 20%
16:00 +33°C° 0 mm 6 mps 751 mmHg 20%
17:00 +32°C° 0 mm 6 mps 751 mmHg 22%
18:00 +30°C° 0 mm 5 mps 751 mmHg 24%
19:00 +30°C° 0 mm 5 mps 751 mmHg 26%
20:00 +28°C° 0 mm 4 mps 751 mmHg 30%
21:00 +26°C° 0 mm 4 mps 752 mmHg 33%
22:00 +24°C° 0 mm 3 mps 752 mmHg 37%
23:00 +22°C° 0 mm 3 mps 752 mmHg 38%

8 August, Sunday

Time Temperature Precipitation Wind Pressure Humidity
00:00 +21°C° 0 mm 3 mps 752 mmHg 40%
01:00 +20°C° 0 mm 2 mps 752 mmHg 42%
02:00 +20°C° 0 mm 2 mps 752 mmHg 42%
03:00 +19°C° 0 mm 2 mps 752 mmHg 43%
04:00 +19°C° 0 mm 2 mps 753 mmHg 44%
05:00 +20°C° 0 mm 2 mps 753 mmHg 42%
06:00 +21°C° 0 mm 2 mps 753 mmHg 40%
07:00 +23°C° 0 mm 2 mps 754 mmHg 38%
08:00 +25°C° 0 mm 3 mps 754 mmHg 35%
09:00 +26°C° 0 mm 3 mps 754 mmHg 31%
10:00 +28°C° 0 mm 4 mps 754 mmHg 28%
11:00 +29°C° 0 mm 4 mps 753 mmHg 27%
12:00 +30°C° 0 mm 5 mps 753 mmHg 26%
13:00 +32°C° 0 mm 5 mps 753 mmHg 24%
14:00 +33°C° 0 mm 5 mps 753 mmHg 24%
15:00 +33°C° 0 mm 6 mps 752 mmHg 23%
16:00 +34°C° 0 mm 6 mps 752 mmHg 23%
17:00 +33°C° 0 mm 6 mps 752 mmHg 23%
18:00 +32°C° 0 mm 6 mps 752 mmHg 24%
19:00 +30°C° 0 mm 5 mps 752 mmHg 25%
20:00 +28°C° 0 mm 5 mps 753 mmHg 27%
21:00 +26°C° 0 mm 4 mps 753 mmHg 28%
22:00 +24°C° 0 mm 3 mps 753 mmHg 29%
23:00 +24°C° 0 mm 3 mps 753 mmHg 29%

9 August, Monday

Time Temperature Precipitation Wind Pressure Humidity
00:00 +22°C° 0 mm 3 mps 753 mmHg 30%
01:00 +21°C° 0 mm 3 mps 753 mmHg 30%
02:00 +21°C° 0 mm 3 mps 753 mmHg 30%
03:00 +20°C° 0 mm 3 mps 754 mmHg 31%
04:00 +20°C° 0 mm 3 mps 754 mmHg 31%
05:00 +20°C° 0 mm 3 mps 754 mmHg 31%
06:00 +21°C° 0 mm 3 mps 754 mmHg 30%
07:00 +21°C° 0 mm 3 mps 754 mmHg 30%
08:00 +24°C° 0 mm 3 mps 754 mmHg 27%
09:00 +26°C° 0 mm 4 mps 754 mmHg 24%
10:00 +27°C° 0 mm 4 mps 754 mmHg 21%
11:00 +29°C° 0 mm 5 mps 754 mmHg 20%
12:00 +30°C° 0 mm 5 mps 754 mmHg 19%
13:00 +32°C° 0 mm 5 mps 754 mmHg 19%
14:00 +33°C° 0 mm 5 mps 753 mmHg 20%
15:00 +33°C° 0 mm 5 mps 753 mmHg 21%
16:00 +34°C° 0 mm 5 mps 753 mmHg 22%
17:00 +33°C° 0 mm 4 mps 753 mmHg 23%
18:00 +33°C° 0 mm 4 mps 752 mmHg 25%
19:00 +31°C° 0 mm 3 mps 752 mmHg 26%
20:00 +30°C° 0 mm 3 mps 752 mmHg 29%
21:00 +28°C° 0 mm 3 mps 753 mmHg 32%
22:00 +26°C° 0 mm 3 mps 753 mmHg 34%
23:00 +26°C° 0 mm 3 mps 753 mmHg 36%
Show more